{"data":{"norad_id":67892,"intl_designator":"2026-035P","name":"STARLINK-36813","alt_names":[],"object_type":"PAYLOAD","status":"ACTIVE","operator":null,"country":"US","launch_date":"2026-02-21","launch_site_code":"AFWTR","launch_vehicle":null,"mission":null,"orbit_class":"UNKNOWN","rcs_meters":null,"size_class":null,"mass_kg":null,"dimensions":null,"purposes":["comms"],"wikipedia_slug":null,"has_3d_model":false,"image_url":null,"decayed_at":null,"tle_current":{"epoch":"2026-05-24T18:37:17.696928Z","epoch_age_seconds":104535,"freshness":"FRESH","line1":"1 67892U 26035P   26144.77589927  .00021654  00000+0  67101-3 0  9994","line2":"2 67892  97.2847  78.3882 0001581  87.1417 273.0007 15.33451248 15652","mean_motion":15.33451248,"eccentricity":0.0001581,"inclination_deg":97.2847,"raan_deg":78.3882,"arg_perigee_deg":87.1417,"mean_anomaly_deg":273.0007,"bstar":0.00067101,"rev_number":1565,"period_min":93.905822038889,"perigee_km":464.44260199252,"apogee_km":466.60656778566,"semimajor_km":6843.6615848891,"source":"CELESTRAK","updated_at":"2026-05-25T13:38:21.734498Z"}}}